Airfield :
LOGIN :

Register | Disclaimer

   EN    FR    IT 

 










Legend :    VFR   Marginal VFR   IFR   Intensive IFR   Very Intensive IFR
Visi :
Ceiling :
>= 8 km
>= 3000ft
5 to 8 km
1000 to 3000 ft
1500m to 5 km
500 to 1000 ft
800 to 1500m
200 to 500 ft
< 800m
< 200 ft
Symbols :   Thunderstorms  Fog  Heavy snow  Heavy precipitations  Wind > 20 kt
SIGMETs :     Misc.  Thunderstorms  Icing  Turbulence  Mountain Waves  Volcanic Ashes







- Airport Elevation : 156 ft
- IATA code : OMO


LQMO - Mostar

CURRENT METAR :
  • 232100Z 16004KT 140V220 7000 FEW015 SCT025 BKN040 15/14 Q1014 RERA

EXPIRED METARs :
  • 232000Z 15005KT 6000 -RA FEW015 SCT025 BKN035 15/14 Q1013
  • 231930Z 17006KT 6000 -RA SCT022 BKN033 15/13 Q1013

TAF TAF LQMO
Valid from the 23 at 18:00 until the 24 at 18:00 UTC


231700Z 2318/2418 12007KT 9999 SCT045 TX24/2414Z TN14/2405Z
PROB30
TEMPO 2318/2322 18015KT
PROB40
TEMPO 2320/2409 SHRA FEW030TCU BKN040
PROB30
TEMPO 2321/2402 5000 TSRA FEW030CB BKN040
TEMPO 2408/2415 18010KT
No reported NOTAMs for that airfield.



MET'MAP, your aeronautical weather chart ! - Copyright ORBIFLY December 2007 - Disclaimer

ORBIFLY MET'MAP TEAM :

Programming & Development : Alexandra Zaïnal
Concept & Development : Baudouin d'Aumeries
Co-Development & Prog : Marc-Olivier Méhu
Technical & hardware support : Manuel Goepfert

Contact : metmap@orbifly.com




SOURCES & CREDITS :

   NOAA